Simultaneous Nadir Overpasses (SNOs) Predictions

Prediction of SNOs between METOP-A and TERRA Satellite Orbit:

Table of predicted SNOs for the next 14.0 days since TLE Epoch: 12/2/2011
Index Date Time (METOP-A) METOP-A Lat,Lon TERRA Lat,Lon Distance(km) Time Diff (sec)
1 12/04/2011 01:00:13 81.22,-148.39 81.23,-148.27 2.27 14
2 12/04/2011 01:50:53 -81.23, 19.18 -81.22, 19.29 1.82 59
3 12/06/2011 20:34:35 81.22, -82.11 81.22, -81.98 2.27 12
4 12/06/2011 21:25:14 -81.23, 85.85 -81.24, 85.97 2.34 61
5 12/09/2011 16:08:55 81.22, -15.59 81.22, -15.57 0.42 10
6 12/09/2011 16:59:34 -81.23, 152.36 -81.24, 152.40 1.09 63
7 12/12/2011 11:43:16 81.22, 50.77 81.23, 50.95 3.19 7
8 12/12/2011 12:33:55 -81.23,-141.28 -81.22,-141.44 2.78 65
9 12/15/2011 07:17:36 81.22, 117.36 81.22, 117.22 2.61 5




NCC Satellite Simultaneous Nadir Overpasses (SNOs) Prediction Service
